This is the latest recevied weather packets stored in our database for station/object SQ9SMC-13. If no packets are shown the sender has not sent any weather packets the latest 10 day(s).
| Time | Temp. | Humidity | Pressure | Rain* | Wind** | Luminosity | Snow |
|---|---|---|---|---|---|---|---|
| 1777857303 | 11.67° C | 53% | 1016.5 hPa | 0 mm | - | 0 W/m² | - |
| 1777857004 | 12.78° C | 50% | 1016.6 hPa | 0 mm | - | 0 W/m² | - |
| 1777856704 | 12.78° C | 49% | 1016.6 hPa | 0 mm | - | 0 W/m² | - |
| 1777856403 | 13.33° C | 48% | 1016.6 hPa | 0 mm | - | 0 W/m² | - |
| 1777856103 | 13.33° C | 48% | 1016.5 hPa | 0 mm | - | 0 W/m² | - |
| 1777855804 | 13.33° C | 47% | 1016.7 hPa | 0 mm | - | 0 W/m² | - |
| 1777855503 | 13.89° C | 46% | 1016.7 hPa | 0 mm | - | 0 W/m² | - |
| 1777855202 | 14.44° C | 45% | 1016.7 hPa | 0 mm | - | 0 W/m² | - |
| 1777854903 | 14.44° C | 44% | 1016.6 hPa | 0 mm | - | 0 W/m² | - |
| 1777854603 | 15° C | 43% | 1016.7 hPa | 0 mm | - | 0 W/m² | - |
| 1777854304 | 15° C | 43% | 1016.6 hPa | 0 mm | - | 0 W/m² | - |
| 1777854003 | 15° C | 43% | 1016.6 hPa | 0 mm | - | 0 W/m² | - |
| 1777853704 | 15° C | 44% | 1016.8 hPa | 0 mm | - | 0 W/m² | - |
| 1777853404 | 15° C | 44% | 1016.7 hPa | 0 mm | - | 0 W/m² | - |
| 1777853103 | 15° C | 44% | 1016.9 hPa | 0 mm | - | 0 W/m² | - |
| 1777852804 | 14.44° C | 44% | 1016.7 hPa | 0 mm | - | 0 W/m² | - |
| 1777852502 | 14.44° C | 45% | 1017 hPa | 0 mm | - | 0 W/m² | - |
| 1777852204 | 14.44° C | 45% | 1016.9 hPa | 0 mm | - | 0 W/m² | - |
| 1777851903 | 14.44° C | 45% | 1016.9 hPa | 0 mm | - | 0 W/m² | - |
| 1777851604 | 14.44° C | 45% | 1016.8 hPa | 0 mm | - | 0 W/m² | - |
| 1777851303 | 14.44° C | 45% | 1016.8 hPa | 0 mm | - | 0 W/m² | - |
| 1777851004 | 14.44° C | 45% | 1017 hPa | 0 mm | - | 0 W/m² | - |
| 1777850703 | 14.44° C | 46% | 1017 hPa | 0 mm | - | 0 W/m² | - |
| 1777850402 | 13.89° C | 47% | 1017 hPa | 0 mm | - | 0 W/m² | - |
| 1777850104 | 14.44° C | 47% | 1017 hPa | 0 mm | - | 0 W/m² | - |
* Rain latest hour (hover to see other rain measurements)
** Current wind speed in m/s (hover to see current wind gust speed)